1297903828303,0.000149572
1297903888303,0.000149343
1297903948303,0.000148597
1297904008303,0.000148193
1297904068303,0.000148389
1297907428314,0.000147695
1297907488314,0.000147397
1297907548314,0.000149970
1297907608314,0.000148039
1297907668314,0.000150182
1297911028325,0.000150394
1297911088325,0.000150380
1297911148325,0.000150032
1297911208325,0.000149843
1297911268325,0.000149142
1297914628336,0.000147137
1297914688336,0.000148070
1297914748336,0.000148070
1297914808336,0.000147883
1297914868336,0.000147351
1297918228348,0.000148742
1297918288348,0.000148686
1297918348348,0.000147445
1297918408348,0.000147306
1297918468348,0.000146600
1297921828359,0.000148658
1297921888359,0.000147657
1297921948359,0.000148277
1297922008359,0.000148905
1297922068359,0.000148947
1297925428370,0.000149050
1297925488370,0.000150204
1297925548370,0.000152667
1297925608370,0.000148842
1297925668370,0.000146643
1297929028382,0.000148220
1297929088382,0.000146436
1297929148382,0.000146626
1297929208382,0.000146522
1297929268382,0.000146272
1297932628394,0.000151006
1297932688394,0.000153326
1297932748394,0.000155971
1297932808394,0.000155729
1297932868394,0.000153549
1297936228406,0.000149760
1297936288406,0.000147368
1297936348406,0.000148720
1297936408406,0.000148915
1297936468406,0.000149160
1297939828417,0.000147328
1297939888417,0.000147259
1297939948417,0.000146061
1297940008417,0.000146321
1297940068417,0.000144747
1297943428429,0.000145236
1297943488429,0.000145760
1297943548429,0.000146231
1297943608429,0.000145599
1297943668429,0.000145977
1297947028441,0.000146455
1297947088441,0.000145943
1297947148441,0.000146252
1297947208441,0.000146307
1297947268441,0.000146864
1297950628453,0.000144511
1297950688453,0.000145571
1297950748453,0.000145648
1297950808453,0.000145115
1297950868453,0.000145630
1297950928453,0.000145685
1297950988453,0.000144905
1297951048453,0.000145068
1297951108453,0.000145220
1297951168453,0.000145168
1297951228465,0.000145807
1297951288465,0.000145922
1297951348465,0.000144291
1297951408465,0.000145350
1297951468465,0.000145896
1297951528465,0.000147223
1297951588465,0.000145945
1297951648465,0.000145740
1297951708465,0.000146312
1297951768465,0.000146303
1297951828465,0.000145792
1297951888465,0.000145105
1297951948465,0.000145440
1297952008465,0.000144616
1297952068465,0.000144603
1297952128465,0.000144040
1297952188465,0.000144608
1297952248465,0.000146238
1297952308465,0.000144576
1297952368465,0.000143836
1297952428465,0.000145011
1297952488465,0.000144118
1297952548465,0.000144914
1297952608465,0.000145026
1297952668465,0.000144293
1297952728465,0.000144610
1297952788465,0.000144821
1297952848465,0.000144041
1297952908465,0.000143903
1297952968465,0.000144345
1297953028465,0.000144209
1297953088465,0.000145057
1297953148465,0.000144755
1297953208465,0.000144373
1297953268465,0.000142902
1297953328465,0.000143990
1297953388465,0.000143444
1297953448465,0.000145306
1297953508465,0.000143876
1297953568465,0.000143553
1297953628465,0.000144239
1297953688465,0.000145145
1297953748465,0.000143656
1297953808465,0.000145002
1297953868465,0.000145009
1297953928465,0.000144065
1297953988465,0.000145001
1297954048465,0.000146653
1297954108465,0.000145467
1297954168465,0.000146312
1297954228465,0.000143976
1297954288465,0.000145183
1297954348465,0.000144866
1297954408465,0.000144236
1297954468465,0.000145673
1297954528465,0.000144258
1297954588465,0.000144375
1297954648465,0.000144521
1297954708465,0.000144905
1297954768465,0.000145218
1297954828477,0.000144684
1297954888477,0.000145071
1297954948477,0.000144091
1297955008477,0.000143244
1297955068477,0.000145308
1297955128477,0.000145272
1297955188477,0.000146927
1297955248477,0.000145336
1297955308477,0.000146609
1297955368477,0.000146977
1297955428477,0.000147768
1297955488477,0.000147861
1297955548477,0.000146864
1297955608477,0.000145899
1297955668477,0.000146337
1297955728477,0.000147132
1297955788477,0.000145218
1297955848477,0.000144861
1297955908477,0.000144192
1297955968477,0.000146454
1297956028477,0.000145991
1297956088477,0.000146280
1297956148477,0.000144520
1297956208477,0.000145652
1297956268477,0.000145881
1297956328477,0.000145092
1297956388477,0.000146178
1297956448477,0.000146250
1297956508477,0.000145800
1297956568477,0.000147202
1297956628477,0.000147381
1297956688477,0.000146223
1297956748477,0.000145732
1297956808477,0.000145260
1297956868477,0.000145347
1297956928477,0.000146929
1297956988477,0.000145456
1297957048477,0.000145725
1297957108477,0.000145794
1297957168477,0.000146080
1297957228477,0.000147123
1297957288477,0.000146509
1297957348477,0.000148162
1297957408477,0.000148386
1297957468477,0.000148414
1297957528477,0.000146051
1297957588477,0.000146707
1297957648477,0.000146074
1297957708477,0.000147089
1297957768477,0.000146070
1297957828477,0.000147866
1297957888477,0.000147753
1297957948477,0.000147426
1297958008477,0.000148921
1297958068477,0.000147217
1297958128477,0.000147007
1297958188477,0.000146545
1297958248477,0.000144647
1297958308477,0.000146240
1297958368477,0.000145794
1297958428488,0.000146742
1297958488488,0.000145486
1297958548488,0.000145438
1297958608488,0.000145160
1297958668488,0.000146769
1297958728488,0.000145606
1297958788488,0.000145011
1297958848488,0.000146552
1297958908488,0.000147190
1297958968488,0.000145770
1297959028488,0.000145277
1297959088488,0.000146797
1297959148488,0.000148490
1297959208488,0.000146040
1297959268488,0.000147349
1297959328488,0.000146694
1297959388488,0.000146365
1297959448488,0.000147059
1297959508488,0.000146464
1297959568488,0.000144939
1297959628488,0.000145580
1297959688488,0.000145843
1297959748488,0.000145968
1297959808488,0.000145316
1297959868488,0.000145484
1297959928488,0.000144624
1297959988488,0.000145170
1297960048488,0.000144048
1297960108488,0.000144182
1297960168488,0.000146249
1297960228488,0.000146300
1297960288488,0.000144494
1297960348488,0.000146263
1297960408488,0.000144216
1297960468488,0.000146195
1297960528488,0.000146034
1297960588488,0.000144882
1297960648488,0.000145689
1297960708488,0.000145836
1297960768488,0.000146293
1297960828488,0.000147261
1297960888488,0.000150050
1297960948488,0.000149006
1297961008488,0.000146920
1297961068488,0.000147598
1297961128488,0.000144930
1297961188488,0.000145259
1297961248488,0.000145731
1297961308488,0.000144935
1297961368488,0.000145930
1297961428488,0.000144075
1297961488488,0.000145911
1297961548488,0.000144992
1297961608488,0.000145803
1297961668488,0.000145979
1297965028500,0.000147128
1297965088500,0.000145409
1297965148500,0.000145705
1297965208500,0.000145903
1297965268500,0.000146088
1297968628511,0.000147176
1297968688511,0.000146788
1297968748511,0.000145708
1297968808511,0.000146068
1297968868511,0.000144757
1297972228522,0.000147771
1297972288522,0.000146232
1297972348522,0.000147368
1297972408522,0.000149358
1297972468522,0.000148226
1297975828533,0.000146871
1297975888533,0.000147603
1297975948533,0.000146837
1297976008533,0.000148147
1297976068533,0.000148688
1297979428544,0.000151313
1297979488544,0.000152314
1297979548544,0.000148591
1297979608544,0.000151583
1297979668544,0.000151514
1297983028555,0.000150386
1297983088555,0.000150041
1297983148555,0.000150550
1297983208555,0.000148910
1297983268555,0.000149643
1297986628565,0.000149667
1297986688565,0.000148977
1297986748565,0.000149722
1297986808565,0.000153170
1297986868565,0.000150363
